This is the latest recevied weather packets stored in our database for station/object KG4ZVW. If no packets are shown the sender has not sent any weather packets the latest 10 day(s).
| Time | Temp. | Humidity | Pressure | Rain* | Wind** | Luminosity | Snow |
|---|---|---|---|---|---|---|---|
| 1777654399 | 32.78° C | 56% | 1011.2 hPa | 0 mm | - | 986 W/m² | - |
| 1777654097 | 32.78° C | 56% | 1011.2 hPa | 0 mm | - | 974 W/m² | - |
| 1777653812 | 32.78° C | 57% | 1011.2 hPa | 0 mm | - | 1007 W/m² | - |
| 1777653510 | 32.78° C | 55% | 1011.2 hPa | 0 mm | - | 993 W/m² | - |
| 1777653204 | 32.22° C | 55% | 1011.2 hPa | 0 mm | - | 976 W/m² | - |
| 1777652899 | 32.22° C | 56% | 1011.2 hPa | 0 mm | - | 960 W/m² | - |
| 1777652611 | 32.22° C | 56% | 1011.3 hPa | 0 mm | - | 243 W/m² | - |
| 1777652305 | 32.22° C | 57% | 1011.3 hPa | 0 mm | - | 972 W/m² | - |
| 1777652005 | 32.22° C | 55% | 1011.3 hPa | 0 mm | - | 814 W/m² | - |
| 1777651698 | 32.22° C | 56% | 1011.3 hPa | 0 mm | - | 919 W/m² | - |
| 1777651415 | 32.22° C | 63% | 1011.3 hPa | 0 mm | - | 907 W/m² | - |
| 1777651111 | 31.67° C | 60% | 1011.3 hPa | 0 mm | - | 889 W/m² | - |
| 1777650809 | 31.67° C | 58% | 1011.4 hPa | 0 mm | - | 879 W/m² | - |
| 1777650506 | 31.67° C | 61% | 1011.4 hPa | 0 mm | - | 863 W/m² | - |
| 1777650204 | 31.11° C | 61% | 1011.4 hPa | 0 mm | - | 853 W/m² | - |
| 1777649901 | 31.11° C | 59% | 1011.5 hPa | 0 mm | - | 861 W/m² | - |
| 1777649597 | 31.11° C | 63% | 1011.5 hPa | 0 mm | - | 872 W/m² | - |
| 1777649312 | 31.11° C | 61% | 1011.5 hPa | 0 mm | - | 865 W/m² | - |
| 1777649007 | 31.11° C | 63% | 1011.6 hPa | 0 mm | - | 819 W/m² | - |
| 1777648702 | 30.56° C | 65% | 1011.6 hPa | 0 mm | - | 805 W/m² | - |
| 1777648399 | 30.56° C | 63% | 1011.6 hPa | 0 mm | - | 796 W/m² | - |
| 1777648113 | 30.56° C | 64% | 1011.4 hPa | 0 mm | - | 780 W/m² | - |
| 1777647808 | 30° C | 67% | 1011.4 hPa | 0 mm | - | 747 W/m² | - |
| 1777647502 | 30° C | 69% | 1011.4 hPa | 0 mm | - | 765 W/m² | - |
| 1777647197 | 29.44° C | 65% | 1011.6 hPa | 0 mm | - | 749 W/m² | - |
* Rain latest hour (hover to see other rain measurements)
** Current wind speed in m/s (hover to see current wind gust speed)